Lupin, Nunavut

10:03 AM MST on December 18, 2017 (GMT -0700)
Lupin

Weather History for CWIJ - April, 2013

Change the Weather History Date:

Tuesday, April 30, 2013

  Actual Average Record
Temperature  
Mean Temperature -10 °F -  
Max Temperature 1 °F - - ()
Min Temperature -20 °F - - ()
Degree Days  
Heating Degree Days 74    
Moisture  
Dew Point -14 °F    
Average Humidity 76    
Maximum Humidity 83    
Minimum Humidity 62    
Precipitation  
Precipitation 0.31 in - - ()
Sea Level Pressure  
Sea Level Pressure 30.32 in    
Wind  
Wind Speed - ()    
Max Wind Speed -    
Max Gust Speed -    
T = Trace of Precipitation, MM = Missing Value Source: Averaged Metar Reports

Daily Weather History Graph

Daily Weather History Graph

Search for Another Location

Airport or City:

Trip Planner

Search our weather history database for the weather conditions in past years. The results will help you decide how hot, cold, wet, or windy it might be!

Date:

Astronomy

Apr. 30, 2013 Rise Set
Actual Time 4:46 AM MDT 10:00 PM MDT
Civil Twilight 3:27 AM MDT 11:21 PM MDT
Nautical Twilight Sun does not rise Sun does not rise
Astronomical Twilight Sun does not rise Sun does not rise
Moon 2:58 AM MDT (4/30) 8:50 AM MDT (4/30)
Length of Visible Light 19h 53m
Length of Day
17h 13m
Waning Gibbous, 69% of the Moon is Illuminated
Apr 30
Waning Gibbous
May 2
Last Quarter
May 9
New
May 17
First Quarter
May 24
Full

Hourly Weather History & Observations

Time (MDT) Temp. Dew Point Humidity Pressure Visibility Wind Dir Wind Speed Gust Speed Precip Events Conditions
12:00 AM -12 °F -16 °F 74% 30.31 in - Calm Calm - -  
12:00 AM -11.9 °F -15.7 °F 83% 30.31 in - North - - N/A   Unknown
1:00 AM -15.7 °F -19.5 °F 83% 30.32 in - North - - N/A   Unknown
2:00 AM -16.1 °F -20.0 °F 82% 30.32 in - North - - N/A   Unknown
3:00 AM -18.9 °F -23.4 °F 80% 30.32 in - North - - N/A   Unknown
4:00 AM -17.7 °F -21.6 °F 82% 30.32 in - North - - N/A   Unknown
5:00 AM -19.5 °F -23.4 °F 82% 30.32 in - North - - N/A   Unknown
6:00 AM -19 °F -25 °F 62% 30.32 in - Calm Calm - -  
6:00 AM -19.3 °F -24.7 °F 76% 30.32 in - North - - N/A   Unknown
7:00 AM -17.5 °F -22.9 °F 76% 30.31 in - North - - N/A   Unknown
8:00 AM -15.9 °F -21.6 °F 75% 30.31 in - North - - N/A   Unknown
9:00 AM -12.5 °F -18.4 °F 75% 30.32 in - North - - N/A   Unknown
10:00 AM -9.6 °F -15.3 °F 76% 30.31 in - North - - N/A   Unknown
11:00 AM -7.2 °F -13.2 °F 75% 30.30 in - North - - N/A   Unknown
12:00 PM -5 °F -11 °F 63% 30.31 in - Calm Calm - -  
12:00 PM -4.5 °F -11.0 °F 74% 30.31 in - North - - N/A   Unknown
1:00 PM -2.9 °F -9.6 °F 73% 30.32 in - North - - 0.10 in   Unknown
2:00 PM -0.9 °F -7.4 °F 74% 30.32 in - North - - 0.16 in   Unknown
3:00 PM 0.5 °F -6.3 °F 73% 30.33 in - North - - 0.07 in   Unknown
4:00 PM 0.7 °F -6.0 °F 74% 30.34 in - North - - N/A   Unknown
5:00 PM 0.5 °F -5.6 °F 75% 30.34 in - North - - N/A   Unknown
6:00 PM 1 °F -5 °F 63% 30.33 in - Calm Calm - -  
6:00 PM 0.9 °F -5.4 °F 75% 30.33 in - North - - N/A   Unknown
7:00 PM -0.4 °F -6.3 °F 76% 30.34 in - North - - N/A   Unknown
8:00 PM -2.4 °F -8.3 °F 76% 30.34 in - North - - N/A   Unknown
9:00 PM -4.7 °F -10.3 °F 77% 30.35 in - North - - N/A   Unknown
10:00 PM -6.7 °F -11.2 °F 81% 30.35 in - North - - N/A   Unknown
11:00 PM -6.9 °F -11.0 °F 82% 30.35 in - North - - N/A   Unknown